TimeCST,TemperatureF,Dew PointF,Humidity,Sea Level PressureIn,VisibilityMPH,Wind Direction,Wind SpeedMPH,Gust SpeedMPH,PrecipitationIn,Events,Conditions,WindDirDegrees,DateUTC
12:11 AM,-0.4,-9.4,66,30.24,10.0,North,4.6,-,N/A,,Clear,350,2013-02-20 06:11:00
12:31 AM,-0.4,-9.4,66,30.25,10.0,NNW,6.9,-,N/A,,Clear,340,2013-02-20 06:31:00
12:52 AM,-2.2,-11.2,66,30.26,10.0,Calm,Calm,-,N/A,,Clear,0,2013-02-20 06:52:00
1:11 AM,-2.2,-11.2,66,30.26,10.0,NNW,4.6,-,N/A,,Clear,330,2013-02-20 07:11:00
1:31 AM,-2.2,-11.2,66,30.27,10.0,Calm,Calm,-,N/A,,Clear,0,2013-02-20 07:31:00
1:52 AM,-2.2,-11.2,66,30.28,10.0,Calm,Calm,-,N/A,,Clear,0,2013-02-20 07:52:00
2:11 AM,-2.2,-11.2,66,30.28,10.0,North,5.8,-,N/A,,Clear,350,2013-02-20 08:11:00
2:52 AM,-4.0,-13.0,65,30.30,10.0,Calm,Calm,-,N/A,,Clear,0,2013-02-20 08:52:00
3:11 AM,-4.0,-13.0,65,30.30,10.0,North,4.6,-,N/A,,Clear,360,2013-02-20 09:11:00
3:31 AM,-4.0,-13.0,65,30.31,10.0,North,5.8,-,N/A,,Clear,350,2013-02-20 09:31:00
3:51 AM,-5.8,-14.8,65,30.32,10.0,Calm,Calm,-,N/A,,Clear,0,2013-02-20 09:51:00
4:11 AM,-5.8,-14.8,65,30.33,10.0,Calm,Calm,-,N/A,,Clear,0,2013-02-20 10:11:00
4:32 AM,-5.8,-14.8,65,30.34,10.0,NNW,3.5,-,N/A,,Clear,330,2013-02-20 10:32:00
4:51 AM,-5.8,-14.8,65,30.35,10.0,Calm,Calm,-,N/A,,Clear,0,2013-02-20 10:51:00
5:12 AM,-9.4,-16.6,71,30.36,10.0,Calm,Calm,-,N/A,,Clear,0,2013-02-20 11:12:00
5:31 AM,-9.4,-16.6,71,30.36,10.0,Calm,Calm,-,N/A,,Clear,0,2013-02-20 11:31:00
5:51 AM,-13.0,-20.2,70,30.37,10.0,Calm,Calm,-,N/A,,Clear,0,2013-02-20 11:51:00
6:12 AM,-11.2,-18.4,70,30.37,10.0,Calm,Calm,-,N/A,,Clear,0,2013-02-20 12:12:00
6:31 AM,-11.2,-18.4,70,30.38,10.0,North,4.6,-,N/A,,Clear,10,2013-02-20 12:31:00
7:12 AM,-9.4,-18.4,65,30.39,10.0,Calm,Calm,-,N/A,,Clear,0,2013-02-20 13:12:00
7:31 AM,-7.6,-16.6,65,30.39,10.0,NNW,6.9,-,N/A,,Clear,340,2013-02-20 13:31:00
7:51 AM,-5.8,-16.6,60,30.39,10.0,Calm,Calm,-,N/A,,Clear,0,2013-02-20 13:51:00
8:12 AM,-2.2,-14.8,55,30.40,10.0,NNE,4.6,-,N/A,,Clear,20,2013-02-20 14:12:00
8:31 AM,-2.2,-14.8,55,30.39,10.0,North,5.8,-,N/A,,Clear,10,2013-02-20 14:31:00
8:51 AM,1.4,-13.0,51,30.40,10.0,North,4.6,-,N/A,,Clear,10,2013-02-20 14:51:00
9:12 AM,3.2,-11.2,51,30.39,10.0,NNE,9.2,-,N/A,,Clear,20,2013-02-20 15:12:00
9:31 AM,5.0,-11.2,47,30.40,10.0,ENE,5.8,-,N/A,,Clear,70,2013-02-20 15:31:00
9:51 AM,6.8,-11.2,44,30.39,10.0,NNE,4.6,-,N/A,,Clear,20,2013-02-20 15:51:00
10:12 AM,8.6,-11.2,40,30.39,10.0,ENE,4.6,-,N/A,,Clear,60,2013-02-20 16:12:00
10:31 AM,10.4,-9.4,41,30.39,10.0,ENE,3.5,-,N/A,,Clear,70,2013-02-20 16:31:00
10:51 AM,10.4,-9.4,41,30.39,10.0,NE,3.5,-,N/A,,Clear,50,2013-02-20 16:51:00
11:12 AM,12.2,-7.6,41,30.39,10.0,ENE,5.8,-,N/A,,Clear,70,2013-02-20 17:12:00
11:31 AM,14.0,-7.6,38,30.38,10.0,NE,3.5,-,N/A,,Clear,40,2013-02-20 17:31:00
11:51 AM,15.8,-7.6,35,30.39,10.0,ESE,5.8,-,N/A,,Clear,110,2013-02-20 17:51:00
12:11 PM,14.0,-7.6,38,30.39,10.0,SE,3.5,-,N/A,,Clear,140,2013-02-20 18:11:00
12:31 PM,14.0,-7.6,38,30.38,10.0,South,6.9,-,N/A,,Clear,170,2013-02-20 18:31:00
12:51 PM,14.0,-5.8,41,30.39,10.0,South,6.9,-,N/A,,Clear,170,2013-02-20 18:51:00
1:11 PM,14.0,-4.0,45,30.39,10.0,ESE,5.8,-,N/A,,Clear,110,2013-02-20 19:11:00
1:32 PM,14.0,-4.0,45,30.38,10.0,SE,6.9,-,N/A,,Clear,130,2013-02-20 19:32:00
2:11 PM,15.8,-4.0,41,30.38,10.0,ESE,4.6,-,N/A,,Clear,120,2013-02-20 20:11:00
2:32 PM,15.8,-2.2,45,30.39,10.0,SSE,4.6,-,N/A,,Clear,150,2013-02-20 20:32:00
2:51 PM,15.8,-2.2,45,30.39,10.0,Calm,Calm,-,N/A,,Clear,0,2013-02-20 20:51:00
3:11 PM,15.8,-2.2,45,30.40,10.0,SSE,4.6,-,N/A,,Clear,160,2013-02-20 21:11:00
3:32 PM,15.8,-2.2,45,30.40,10.0,SE,5.8,-,N/A,,Clear,130,2013-02-20 21:32:00
3:51 PM,14.0,-0.4,53,30.41,10.0,SSE,5.8,-,N/A,,Clear,160,2013-02-20 21:51:00
4:11 PM,14.0,-2.2,49,30.42,10.0,South,4.6,-,N/A,,Clear,170,2013-02-20 22:11:00
4:32 PM,14.0,-0.4,53,30.41,10.0,SSE,4.6,-,N/A,,Clear,150,2013-02-20 22:32:00
4:51 PM,12.2,-0.4,57,30.41,10.0,Calm,Calm,-,N/A,,Clear,0,2013-02-20 22:51:00
5:11 PM,12.2,-2.2,53,30.41,10.0,Calm,Calm,-,N/A,,Clear,0,2013-02-20 23:11:00
5:32 PM,10.4,-2.2,57,30.41,10.0,Calm,Calm,-,N/A,,Clear,0,2013-02-20 23:32:00
5:51 PM,8.6,-4.0,57,30.42,10.0,Calm,Calm,-,N/A,,Clear,0,2013-02-20 23:51:00
6:11 PM,6.8,-4.0,61,30.42,10.0,Calm,Calm,-,N/A,,Clear,0,2013-02-21 00:11:00
6:32 PM,6.8,-5.8,56,30.42,10.0,Calm,Calm,-,N/A,,Clear,0,2013-02-21 00:32:00
7:11 PM,-0.4,-9.4,66,30.42,10.0,Calm,Calm,-,N/A,,Clear,0,2013-02-21 01:11:00
7:32 PM,-0.4,-9.4,66,30.42,10.0,Calm,Calm,-,N/A,,Clear,0,2013-02-21 01:32:00
7:51 PM,-2.2,-9.4,71,30.42,10.0,North,3.5,-,N/A,,Clear,360,2013-02-21 01:51:00
8:11 PM,1.4,-7.6,66,30.41,10.0,North,5.8,-,N/A,,Clear,360,2013-02-21 02:11:00
8:32 PM,3.2,-7.6,61,30.41,10.0,North,5.8,-,N/A,,Clear,360,2013-02-21 02:32:00
8:51 PM,3.2,-9.4,56,30.40,10.0,North,4.6,-,N/A,,Clear,360,2013-02-21 02:51:00
9:11 PM,5.0,-11.2,47,30.40,10.0,North,5.8,-,N/A,,Clear,10,2013-02-21 03:11:00
9:32 PM,5.0,-11.2,47,30.39,10.0,NNE,5.8,-,N/A,,Clear,20,2013-02-21 03:32:00
9:51 PM,3.2,-11.2,51,30.38,10.0,NNE,5.8,-,N/A,,Clear,20,2013-02-21 03:51:00
10:31 PM,3.2,-13.0,47,30.38,10.0,North,5.8,-,N/A,,Clear,10,2013-02-21 04:31:00
10:51 PM,5.0,-13.0,43,30.39,-9999.0,North,5.8,-,N/A,,Clear,360,2013-02-21 04:51:00
11:11 PM,3.2,-13.0,47,30.39,10.0,North,5.8,-,N/A,,Clear,10,2013-02-21 05:11:00
11:31 PM,5.0,-13.0,43,30.39,10.0,North,6.9,-,N/A,,Clear,10,2013-02-21 05:31:00
11:51 PM,5.0,-11.2,47,30.38,10.0,North,5.8,-,N/A,,Clear,10,2013-02-21 05:51:00